Location: Recife
(8.0585°S, 34.8848°W)
Time: 06:42:53
(UTC-03:00)

Courier 1B - Pass Details

Date: 23 April 2026
Orbit: 962 x 1209 km, 28.3° (Epoch: 13 May)

Event Time Altitude Azimuth Distance (km) Brightness Sun altitude
Rises 11:31:57 0° 239° (WSW) 4,111 10.7 69.0°
Reaches altitude 10° 11:34:50 10° 238° (WSW) 3,136 10.2 68.8°
Maximum altitude 11:42:41 78° 152° (SSE) 1,194 9.2 68.4°
Drops below altitude 10° 11:50:10 10° 65° (ENE) 2,996 10.2 67.8°
Sets 11:52:52 0° 64° (ENE) 3,918 10.7 67.5°
